Mc Donough, Georgia, United States
Lat: 33.45N, Lon: 84.15W
Wx Zone: GAZ057
Local Info
Past Weather Observations for Today

NOTE: This archive is for the closest National Weather Service station to Mc Donough. Information may differ from the station used for current weather conditions.

Click here for Long-term Archive

Time Weather Temperature Dewpoint Humidity Pressure Winds Precip Visibility
20:52
Partly Cloudy
79°F / 26°C 72°F / 22°C 79% 30.04 in
(1017 mb)
Calm - 10SM
19:52
Partly Cloudy
81°F / 27°C 70°F / 21°C 70% 30.04 in
(1017 mb)
Calm - 10SM
18:52
Partly Cloudy
82°F / 28°C 72°F / 22°C 70% 30.01 in
(1016 mb)
S 3.5 mph
(S 6 kph)
- 10SM
17:52
Mostly Cloudy
84°F / 29°C 70°F / 21°C 62% 30.01 in
(1016 mb)
Calm - 10SM
16:52
Mostly Cloudy
81°F / 27°C 70°F / 21°C 70% 30.04 in
(1017 mb)
ENE 3.5 mph
(ENE 6 kph)
0.00 in
(0.00 mm)
10SM
15:52
Mostly Cloudy
Light Rain
75°F / 24°C 72°F / 22°C 89% 30.04 in
(1017 mb)
WNW 3.5 mph
(WNW 6 kph)
0.00 in
(0.00 mm)
10SM
14:52
Mostly Cloudy
Light Rain
73°F / 23°C 70°F / 21°C 89% 30.06 in
(1018 mb)
NNW 8.1 mph
(NNW 13 kph)
0.17 in
(4.32 mm)
10SM
14:48
Mostly Cloudy
Light Rain
73°F / 23°C 70°F / 21°C 89% 30.06 in
(1018 mb)
NNW 9.2 mph
(NNW 15 kph)
0.17 in
(4.32 mm)
10SM
14:36
Overcast
Thunder Storms
75°F / 24°C 72°F / 22°C 89% 30.09 in
(1019 mb)
NW 15 mph
(NW 24 kph)
0.17 in
(4.32 mm)
6SM
14:27
Overcast
Thunder Storms
75°F / 24°C 72°F / 22°C 89% 30.09 in
(1019 mb)
NNW 13.8 mph
(NNW 22 kph)
0.16 in
(4.06 mm)
1SM
14:20
Overcast
Thunder Storms
75°F / 24°C 70°F / 21°C 83% 30.09 in
(1019 mb)
NNW 18.4 mph
(NNW 30 kph)
0.10 in
(2.54 mm)
3SM
14:17
Mostly Cloudy
Thunder Storms
75°F / 24°C 70°F / 21°C 83% 30.09 in
(1019 mb)
NNW 18.4 mph
(NNW 30 kph)
0.09 in
(2.29 mm)
4SM
14:06
Mostly Cloudy
Thunder Storms
79°F / 26°C 72°F / 22°C 79% 30.09 in
(1019 mb)
NNW 24.2 mph
(NNW 39 kph)
0.09 in
(2.29 mm)
6SM
13:56
Mostly Cloudy
Thunder Storms
79°F / 26°C 70°F / 21°C 74% 30.09 in
(1019 mb)
NW 19.6 mph
(NW 32 kph)
0.00 in
(0.00 mm)
7SM
13:52
Mostly Cloudy
Thunder Storms
81°F / 27°C 70°F / 21°C 70% 30.09 in
(1019 mb)
NNW 17.3 mph
(NNW 28 kph)
0.00 in
(0.00 mm)
8SM
13:42
Mostly Cloudy
Thunder Storms
84°F / 29°C 70°F / 21°C 62% 30.09 in
(1019 mb)
NW 16.1 mph
(NW 26 kph)
- 10SM
13:25
Partly Cloudy
Thunder Storms
88°F / 31°C 70°F / 21°C 55% 30.09 in
(1019 mb)
SSE 4.6 mph
(SSE 7 kph)
- 10SM
12:52
Partly Cloudy
88°F / 31°C 70°F / 21°C 55% 30.09 in
(1019 mb)
SW 5.8 mph
(SW 9 kph)
- 10SM
11:52
Partly Cloudy
88°F / 31°C 72°F / 22°C 59% 30.12 in
(1020 mb)
Calm - 10SM
10:52
Partly Cloudy
88°F / 31°C 73°F / 23°C 62% 30.12 in
(1020 mb)
Variable 5.8 mph
(Variable 9 kph)
- 10SM
09:52
Partly Cloudy
84°F / 29°C 72°F / 22°C 66% 30.12 in
(1020 mb)
NNW 4.6 mph
(NNW 7 kph)
- 10SM
08:52
Partly Cloudy
81°F / 27°C 72°F / 22°C 74% 30.12 in
(1020 mb)
Variable 4.6 mph
(Variable 7 kph)
- 10SM
07:52
Partly Cloudy
75°F / 24°C 72°F / 22°C 89% 30.12 in
(1020 mb)
W 3.5 mph
(W 6 kph)
- 10SM
06:52
Mostly Cloudy
73°F / 23°C 70°F / 21°C 89% 30.12 in
(1020 mb)
NW 5.8 mph
(NW 9 kph)
- 10SM
05:52
Partly Cloudy
72°F / 22°C 70°F / 21°C 94% 30.12 in
(1020 mb)
NW 3.5 mph
(NW 6 kph)
- 10SM
04:52
Partly Cloudy
72°F / 22°C 70°F / 21°C 94% 30.09 in
(1019 mb)
WNW 8.1 mph
(WNW 13 kph)
- 10SM
03:52
Partly Cloudy
72°F / 22°C 70°F / 21°C 94% 30.09 in
(1019 mb)
SW 3.5 mph
(SW 6 kph)
- 10SM
02:52
Partly Cloudy
73°F / 23°C 70°F / 21°C 89% 30.09 in
(1019 mb)
WNW 5.8 mph
(WNW 9 kph)
- 10SM
01:52
Partly Cloudy
73°F / 23°C 70°F / 21°C 89% 30.09 in
(1019 mb)
Calm - 10SM
00:52
Partly Cloudy
73°F / 23°C 70°F / 21°C 89% 30.09 in
(1019 mb)
S 3.5 mph
(S 6 kph)
- 10SM
Time Weather Temperature Dewpoint Humidity Pressure Winds Precip Visibility


Weather for websites

WeatherForYou.com, LLC is not responsible for any damages or problems caused by this service. Current weather conditions are obtained from the closest station including government and personal stations which may have varying degrees of accuracy. Weather forecasts are derived from the NOAA NDFD. Like all things, this site belongs to Jesus Christ... He just trusts me to maintain it. If you have any questions or comments email webmaster@weatherforyou.com

Copyright © 2014, WeatherForYou.com LLC. All rights reserved.